AE7VB Weather Reports


time (UTC)temp
C
wind
direction
speed
KPH
gust
KPH
rain 1hr
cm
rain 24hr
cm
rain mn
cm
humidity
%
barometer
mb
20260505193258 18 30 1.6 4.8 0.00 0.00 0.00 40 1017.2
20260505192257 18 36 1.6 4.8 0.00 0.00 0.00 42 1017.3
20260505191225 19 43 1.6 4.8 0.00 0.00 0.00 43 1017.5
20260505190224 18 67 1.6 4.8 0.00 0.00 0.00 48 1017.5
20260505185223 18 95 1.6 6.4 0.00 0.00 0.00 48 1017.4
20260505184221 18 52 1.6 14.5 0.00 0.00 0.00 53 1017.5
20260505183220 18 28 3.2 14.5 0.00 0.00 0.00 50 1017.4
20260505182219 18 48 3.2 9.7 0.00 0.00 0.00 53 1017.5
20260505181218 17 24 3.2 8.0 0.00 0.00 0.00 56 1017.5
20260505180216 17 18 1.6 8.0 0.00 0.00 0.00 55 1017.5
20260505175215 17 44 1.6 8.0 0.00 0.00 0.00 58 1017.6
20260505174142 17 55 1.6 6.4 0.00 0.00 0.00 58 1017.6
20260505173141 17 14 3.2 6.4 0.00 0.00 0.00 57 1017.7
20260505172141 17 17 1.6 4.8 0.00 0.00 0.00 60 1017.6
20260505171139 16 5 3.2 6.4 0.00 0.00 0.00 60 1017.5
20260505170137 15 17 1.6 6.4 0.00 0.00 0.00 61 1017.5
20260505165136 15 0 3.2 6.4 0.00 0.00 0.00 60 1017.3
20260505164136 15 37 1.6 6.4 0.00 0.00 0.00 63 1017.2
20260505163103 14 273 1.6 11.3 0.00 0.00 0.00 64 1017.2
20260505162102 14 298 3.2 11.3 0.00 0.00 0.00 67 1017.2
20260505161101 13 279 3.2 6.4 0.00 0.00 0.00 67 1017.1
20260505153057 12 277 3.2 6.4 0.00 0.00 0.00 69 1016.9
20260505152056 12 291 1.6 6.4 0.00 0.00 0.00 69 1016.9
20260505150952 12 300 3.2 4.8 0.00 0.00 0.00 71 1017.0
20260505124837 6 263 0.0 1.6 0.00 0.00 0.00 85 1015.7
20260505123837 6 263 0.0 1.6 0.00 0.00 0.00 85 1015.7
20260505122836 6 263 0.0 0.0 0.00 0.00 0.00 84 1015.8
20260505121834 6 263 0.0 0.0 0.00 0.00 0.00 83 1015.5
20260505120833 6 263 0.0 0.0 0.00 0.00 0.00 83 1015.5
20260505115833 6 263 0.0 3.2 0.00 0.00 0.00 83 1015.5
20260505114832 7 263 0.0 4.8 0.00 0.00 0.00 83 1015.2
20260505113831 7 263 1.6 4.8 0.00 0.00 0.00 83 1015.2
20260505112759 7 281 1.6 6.4 0.00 0.00 0.00 83 1015.3
20260505111757 7 281 0.0 6.4 0.00 0.00 0.00 82 1015.3
20260505110756 7 194 1.6 4.8 0.00 0.00 0.00 81 1015.4
20260505101751 8 217 1.6 3.2 0.00 0.00 0.00 79 1015.1
20260505100750 9 219 1.6 8.0 0.00 0.00 0.00 79 1015.2
20260505095749 9 220 3.2 11.3 0.00 0.00 0.00 80 1015.3
20260505094717 9 225 6.4 11.3 0.00 0.00 0.00 81 1015.2
20260505093716 8 232 4.8 8.0 0.00 0.00 0.00 82 1015.2
20260505092715 8 269 3.2 4.8 0.00 0.00 0.00 81 1015.2
20260505091713 8 247 3.2 4.8 0.00 0.00 0.00 81 1015.1
20260505090641 8 155 0.0 3.2 0.00 0.00 0.00 80 1014.8
20260505085640 9 155 1.6 4.8 0.00 0.00 0.00 80 1014.9
20260505084639 9 155 1.6 4.8 0.00 0.00 0.00 80 1014.9
20260505083638 9 157 3.2 6.4 0.00 0.00 0.00 79 1015.1
20260505082637 10 155 3.2 8.0 0.00 0.00 0.00 79 1015.0
20260505081635 10 151 3.2 8.0 0.00 0.00 0.00 79 1015.3
20260505080634 10 152 3.2 8.0 0.00 0.00 0.00 79 1015.3
20260505075633 10 156 1.6 8.0 0.00 0.00 0.00 78 1015.3
20260505074601 10 150 3.2 4.8 0.00 0.00 0.00 77 1015.3
20260505073600 10 152 3.2 4.8 0.00 0.00 0.00 77 1015.3
20260505072559 10 291 0.0 1.6 0.00 0.00 0.00 76 1015.0
20260505071558 11 309 0.0 1.6 0.00 0.00 0.00 75 1015.2
20260505070526 11 309 0.0 4.8 0.00 0.00 0.00 74 1014.8
20260505065524 11 309 3.2 4.8 0.00 0.00 0.00 73 1014.7
20260505064452 11 151 1.6 3.2 0.00 0.00 0.00 72 1014.5
20260505063451 11 150 1.6 4.8 0.00 0.00 0.00 72 1014.2
20260505062450 12 150 1.6 6.4 0.00 0.00 0.00 72 1014.2
20260505061449 12 144 3.2 6.4 0.00 0.00 0.00 72 1014.6
20260505060447 12 135 3.2 6.4 0.00 0.00 0.00 71 1014.6
20260505055446 12 133 3.2 6.4 0.00 0.00 0.00 70 1014.6
20260505054446 12 133 3.2 6.4 0.00 0.00 0.00 70 1014.6
20260505053445 13 109 3.2 4.8 0.00 0.00 0.00 69 1014.6
20260505052444 13 90 1.6 6.4 0.00 0.00 0.00 68 1014.6
20260505051443 13 111 1.6 6.4 0.00 0.00 0.00 67 1014.7
20260505050442 14 108 1.6 6.4 0.00 0.00 0.00 66 1014.6
20260505041436 15 192 1.6 6.4 0.00 0.00 0.00 67 1013.5
20260505040435 15 208 3.2 4.8 0.00 0.00 0.00 65 1013.5
20260505035433 15 209 1.6 3.2 0.00 0.00 0.00 63 1013.5
20260505034433 15 210 0.0 3.2 0.00 0.00 0.00 62 1013.2
20260505033431 16 212 0.0 4.8 0.00 0.00 0.00 61 1013.3
20260505032430 16 212 1.6 4.8 0.00 0.00 0.00 58 1013.3
20260505031429 17 101 0.0 3.2 0.00 0.00 0.00 58 1013.5
20260505030427 18 101 1.6 3.2 0.00 0.00 0.00 55 1013.6
20260505025427 18 276 1.6 1.6 0.00 0.00 0.00 50 1013.6
20260505024426 19 276 0.0 4.8 0.00 0.00 0.00 49 1013.6
20260505023425 20 275 0.0 12.9 0.00 0.00 0.00 46 1013.2
20260505022424 20 291 3.2 12.9 0.00 0.00 0.00 44 1013.0
20260505021423 20 296 6.4 11.3 0.00 0.00 0.00 44 1012.8
20260505020422 20 295 3.2 8.0 0.00 0.00 0.00 44 1012.8
20260505015421 21 326 3.2 9.7 0.00 0.00 0.00 43 1012.7
20260505014419 21 309 3.2 12.9 0.00 0.00 0.00 42 1012.7
20260505013418 22 321 3.2 12.9 0.00 0.00 0.00 39 1012.7
20260505012418 22 351 1.6 11.3 0.00 0.00 0.00 37 1012.7
20260505011417 22 301 3.2 12.9 0.00 0.00 0.00 36 1012.6
20260505010416 22 316 3.2 12.9 0.00 0.00 0.00 37 1012.6
20260505005415 22 319 1.6 11.3 0.00 0.00 0.00 37 1012.5
20260505004344 22 328 3.2 14.5 0.00 0.00 0.00 35 1012.5
20260505003343 22 324 1.6 14.5 0.00 0.00 0.00 32 1012.5
20260505002310 22 318 3.2 11.3 0.00 0.00 0.00 31 1012.4
20260505001309 22 312 3.2 9.7 0.00 0.00 0.00 35 1012.5
20260505000309 22 321 3.2 11.3 0.00 0.00 0.00 33 1012.5
20260504235308 22 333 1.6 6.4 0.00 0.00 0.00 32 1012.5
20260504234307 22 8 1.6 4.8 0.00 0.00 0.00 32 1012.5
20260504233305 22 13 3.2 6.4 0.00 0.00 0.00 33 1012.6
20260504232304 22 8 3.2 12.9 0.00 0.00 0.00 35 1012.6
20260504231232 22 10 1.6 12.9 0.00 0.00 0.00 35 1012.6
20260504230231 22 22 3.2 6.4 0.00 0.00 0.00 36 1012.7
20260504225128 22 338 3.2 16.1 0.00 0.00 0.00 36 1012.8
20260504224056 23 353 3.2 16.1 0.00 0.00 0.00 35 1013.2
20260504223055 23 311 3.2 9.7 0.00 0.00 0.00 34 1012.9
20260504222054 22 359 1.6 12.9 0.00 0.00 0.00 35 1013.3
20260504221053 22 17 3.2 12.9 0.00 0.00 0.00 34 1013.2
20260504220021 22 357 1.6 6.4 0.00 0.00 0.00 43 1013.5
20260504215019 22 24 3.2 6.4 0.00 0.00 0.00 42 1013.4
20260504214018 22 12 3.2 6.4 0.00 0.00 0.00 40 1013.7
20260504213017 23 326 1.6 6.4 0.00 0.00 0.00 39 1013.8
20260504212016 23 310 3.2 16.1 0.00 0.00 0.00 40 1013.8
20260504211015 22 64 3.2 16.1 0.00 0.00 0.00 43 1013.8
20260504210014 22 17 3.2 4.8 0.00 0.00 0.00 43 1013.8
20260504205013 22 118 3.2 6.4 0.00 0.00 0.00 45 1013.9
20260504204011 23 17 1.6 6.4 0.00 0.00 0.00 42 1014.3
20260504203010 23 33 1.6 4.8 0.00 0.00 0.00 44 1014.3
20260504202009 23 15 1.6 6.4 0.00 0.00 0.00 40 1014.3
20260504201008 22 31 1.6 6.4 0.00 0.00 0.00 41 1014.3
20260504200007 22 7 3.2 6.4 0.00 0.00 0.00 45 1014.3
20260504195006 22 56 1.6 8.0 0.00 0.00 0.00 44 1014.2
20260504194006 22 13 3.2 12.9 0.00 0.00 0.00 42 1014.2